{"data":{"norad_id":53745,"intl_designator":"2022-107AX","name":"STARLINK-4656","alt_names":[],"object_type":"PAYLOAD","status":"ACTIVE","operator":null,"country":"US","launch_date":"2022-09-05","launch_site_code":"AFETR","launch_vehicle":null,"mission":null,"orbit_class":"UNKNOWN","rcs_meters":null,"size_class":null,"mass_kg":null,"dimensions":null,"purposes":["comms"],"wikipedia_slug":null,"has_3d_model":false,"image_url":null,"decayed_at":null,"tle_current":{"epoch":"2026-09-20T21:46:59.682144Z","epoch_age_seconds":48522,"freshness":"FRESH","line1":"1 53745U 22107AX  26263.90763521  .00000076  00000+0  13376-4 0  9994","line2":"2 53745  53.1608  91.7256 0001096 105.7677 254.3447 15.34385058224287","mean_motion":15.34385058,"eccentricity":0.0001096,"inclination_deg":53.1608,"raan_deg":91.7256,"arg_perigee_deg":105.7677,"mean_anomaly_deg":254.3447,"bstar":1.3376e-5,"rev_number":22428,"period_min":93.848671980485,"perigee_km":461.9978903826,"apogee_km":463.49741229817,"semimajor_km":6840.8846513404,"source":"CELESTRAK","updated_at":"2026-09-21T09:00:32.990297Z"}}}